SWISSCUBE

Satellite information

Favourite Embed

Satellite Type and Status

PAYLOADIN ORBIT

Key statistics

Satellite SWISSCUBE at a glance.

Uptime

5706

Days in orbit

Revolutions

≈ 14.6

Per day

Orbit

SSO

Sun Synchronous Orbit

Inclination

98.4

Latest

Satellite identification and parameters

Extended collection of information and parameters for SWISSCUBE.

Object identification

Identified? True

Debris? False

Object name: SWISSCUBE

International designator: 2009-051B

Object number (NORAD): 35932

Object ID (CCSDS): 35932

Country: SWITZERLAND (SWTZ)

Current information (Y/N): Y

RCS size: SMALL

Orbital parameters

Period: 98.545 minutes

Inclination: 98.4338 deg

SMA: 7067.263 km

Apoapsis: 694.726 km

Periapsis: 683.531 km

RAAN: 23.5895 deg

Eccentricy: 0.000792

Argument of periapsis: 40.8313 deg

Mean anomaly: 319.3479 deg

Mean motion: 14.61254496 rev/day

Mean motion (dot): 0.00001475 rev/day2

B* drag term: 0.00030903 1/REarth

Two-line elements (TLE)

Creation date: May 8, 2025, 3:01 a.m.

Reference frame: TEME

Reference center: EARTH

Epoch: May 7, 2025, 11:15 p.m. UTC

TLE line 0: 0 SWISSCUBE

TLE line 1: 1 35932U 09051B 25127.96903561 .00001475 00000-0 30903-3 0 9998

TLE line 2: 2 35932 98.4338 23.5895 0007920 40.8313 319.3479 14.61254496829959

Live tracking on map

Real-time ground track for satellite SWISSCUBE.

In-orbit conjunctions

There are no conjunctions computed for SWISSCUBE, at the moment. Check back to stay up to date, as we update our databases every day.

Go to all conjunctions

Associated space launch

Oceansat-2 is an earth observation and oceanography satellite operated by ISRO.

SWISSCUBE was lifted into orbit during the mission ‘PSLV | Oceansat-2’, on board a PSLV space rocket.

The launch took place on Sept. 23, 2009, 6:21 a.m. from Satish Dhawan Space Centre First Launch Pad.

For more information about the launch, click the button.

Launch to space PSLV | Oceansat-2
PSLV | Oceansat-2

Agency: N/A

Status: Launch Successful

Launch date: Sept. 23, 2009, 6:21 a.m. UTC

Rocket: PSLV

Launch pad: Satish Dhawan Space Centre First Launch Pad

Location: Satish Dhawan Space Centre, India

...

Latest news about this satellite

There are no fresh news available about this satellite. Check back as we update our databases every day.


Newsletter sign-up

Weekly statistics, charts and insights to help you stay on top of the space industry.